SCP
-0 -0 -0 -0 -0 -0 -0 -0 -0 -0 -0 -0 -0 -0 -0 -0 -0 -0 -0 -0 -0 -0 -0 -0 -0 -0 -0 -0 -0 -0 -0 -0 0 -0 -0 -0 -0 -0 -0 -0 0 0 -0
-0 -0 -0 -0 -0 -0 -0 -0 -0 -0 -0 -0 -0 -0 -0 -0 -0 -0 -0 -0 -0 -0 -0 -0 -0 0 -0 -0 -0 -0 -0 -0 0 0 0 -0 -0 -0 -0 -0 -0 0 -0
-0 -0 -0 -0 -0 -0 -0 -0 -0 -0 -0 -0 -0 -0 -0 -0 -0 -0 -0 -0 -0 -0 -0 -0 -0 -0 -0 0 0 -0 0 0 0 0 0 -0 0 -0 -0 -0 -0 -0 -0
-0 -0 -0 0 -0 -0 -0 -0 -0 -0 0 0 -0 -0 -0 -0 -0 -0 -0 -0 -0 -0 -0 -0 -0 -0 -0 -0 -0 0 0 0 0 0 -0 -0 0 -0 -0 -0 -0 -0 0
-0 -0 -0 -0 -0 -0 -0 -0 -0 -0 -0 -0 -0 -0 -0 -0 -0 -0 -0 -0 -0 -0 -0 -0 -0 -0 -0 -0 -0 -0 0 0 0 0 0 0 0 -0 -0 -0 0 0 0
-0 -0 -0 -0 -0 -0 -0 -0 -0 -0 -0 -0 -0 -0 -0 -0 -0 -0 -0 -0 -0 -0 -0 -0 -0 -0 -0 -0 -0 0 -0 -0 -0 0 0 0 0 0 0 0 0 0 0
-0 -0 -0 -0 -0 -0 -0 -0 -0 -0 -0 -0 -0 -0 -0 -0 -0 -0 -0 -0 -0 -0 -0 -0 -0 -0 -0 -0 -0 0 0 -0 0 0 0 0 0 0 0 0 0 0 0
-0 -0 -0 -0 0 0 0 -0 -0 -0 -0 -0 -0 -0 -0 -0 -0 -0 -0 -0 -0 -0 -0 -0 -0 -0 -0 -0 0 0 0 0 0 0 0 0 0 0 0 0 0 0 0
-0 0 0 0 -0 0 0 0 0 0 0 0 -0 -0 -0 -0 -0 -0 -0 -0 -0 -0 -0 0 0 0 0 0 0 0 0 0 0 0 0 0 0 0 0 0 0 0 0
0 0 0 0 0 0 0 0 0 0 0 0 0 0 0 -0 -0 -0 0 -0 -0 -0 0 0 0 0 0 0 0 0 0 0 0 0 0 0 0 0 0 0 0 0 0
0 0 0 0 0 0 0 0 0 0 0 0 0 0 0 0 0 0 0 -0 -0 0 0 0 0 0 0 0 0 0 0 0 0 0 0 0 0 0 0 0 0 0 0
0 0 0 0 0 0 0 0 0 0 0 0 0 0 0 0 0 0 0 0 0 0 0 0 0 0 0 0 0 0 0 0 0 0 0 0 0 0 0 0 0 0 0
0 0 0 0 0 0 0 0 0 0 0 0 0 0 0 0 0 0 0 0 0 0 0 0 0 0 0 0 0 0 0 0 0 0 0 0 0 0 0 0 0 0 0
0 0 0 0 0 0 0 0 0 0 0 0 0 0 0 0 0 0 0 0 0 0 0 0 0 0 0 0 0 0 0 0 0 0 0 0 0 0 0 0 0 0 0
0 0 0 0 0 0 0 0 0 0 0 0 0 0 0 0 0 0 0 0 0 0 0 0 0 0 0 0 0 0 0 0 -0 -0 0 0 0 0 0 0 0 0 0
0 0 0 0 0 0 0 0 0 0 0 0 0 0 0 0 0 0 0 0 0 0 0 0 0 0 0 0 0 0 0 -0 -0 0 0 0 0 0 0 0 0 0 0
0 0 0 0 0 0 0 0 0 0 0 0 0 0 0 0 0 0 0 0 0 0 0 0 0 0 0 0 0 0 0 0 0 0 0 0 0 0 0 0 0 0 0
0 0 0 0 0 0 0 0 0 0 0 0 0 0 0 0 0 0 0 0 0 0 0 0 0 0 0 0 0 0 0 0 0 0 0 0 0 0 0 0 0 0 0
0 0 0 0 0 0 0 0 0 0 0 0 0 0 0 0 0 0 0 0 0 0 0 0 0 0 0 0 0 0 0 -0 0 0 0 0 0 0 0 0 0 0 0
0 0 0 0 0 0 0 0 0 0 0 0 0 0 0 0 0 0 0 0 0 0 0 0 0 0 0 0 0 0 0 0 0 0 0 0 0 0 0 0 0 0 0
0 0 0 0 0 0 0 0 0 0 0 0 0 0 0 0 0 0 0 0 0 0 0 0 0 0 0 0 0 0 0 0 0 0 0 0 0 0 0 0 0 0 0
0 0 0 0 0 0 0 0 0 0 0 0 0 0 0 0 0 0 0 0 0 0 0 0 0 0 0 0 0 0 0 0 0 0 0 0 0 0 0 0 0 0 0
0 0 0 0 0 0 0 0 0 0 0 0 0 0 0 0 0 0 0 0 0 0 0 0 0 0 0 0 0 0 0 0 0 0 0 0 0 0 0 0 0 0 0
0 0 0 0 0 0 0 0 0 0 0 0 0 0 0 0 0 0 0 0 0 0 0 0 0 0 0 0 0 0 0 0 0 0 0 0 0 0 0 0 0 0 0
0 0 0 0 0 0 0 0 0 0 0 0 0 0 0 0 0 0 0 0 0 0 0 0 0 0 0 0 0 0 0 0 0 0 0 0 0 0 0 0 -0 -0 0
0 0 0 0 0 0 0 0 0 0 0 0 0 0 0 0 0 0 0 0 0 0 0 0 0 0 0 0 0 0 0 0 0 0 0 0 0 0 0 -0 0 -0 -0
Wind_Speed_500mb
18 21 24 23 23 22 22 21 21 21 19 18 16 15 16 16 18 22 24 25 25 24 24 24 24 22 18 20 18 18 19 21 22 23 22 18 20 23 27 30 24 19 20
21 19 24 22 22 20 20 21 20 19 16 14 14 14 14 13 16 18 19 21 22 22 21 21 21 19 19 18 16 16 19 23 27 32 23 19 10 14 17 19 24 28 20
19 19 26 22 20 20 20 20 18 17 14 11 12 13 12 9 11 14 16 17 19 19 18 18 17 16 16 16 15 16 17 21 29 28 19 21 10 10 10 10 11 15 19
23 14 23 16 15 18 18 18 17 16 11 7 8 10 9 8 9 12 13 15 18 17 15 13 14 14 12 12 12 13 15 20 26 27 22 20 19 15 11 9 9 8 7
27 10 18 19 15 14 16 15 16 14 8 9 7 8 7 6 7 10 14 19 22 21 13 11 12 12 11 9 8 11 15 23 26 23 11 17 15 17 15 13 9 8 7
25 21 19 23 19 16 13 14 14 12 9 6 6 6 5 9 17 11 15 21 25 27 17 11 13 14 12 9 7 8 17 27 17 15 14 10 10 14 13 13 10 8 6
27 16 19 19 23 21 17 13 12 10 9 6 5 4 7 6 13 15 17 22 24 25 18 15 15 15 13 12 9 9 15 17 15 11 5 4 9 15 11 10 9 7 5
23 22 12 26 26 24 18 14 13 11 9 7 5 3 4 1 8 14 18 21 23 22 21 18 18 17 15 13 10 10 13 12 10 3 4 6 5 11 10 11 10 8 4
12 18 15 18 26 23 19 17 15 12 10 8 7 6 9 7 3 10 16 19 24 23 20 20 19 18 16 14 12 9 6 7 1 3 3 9 10 13 14 13 13 12 10
16 22 27 22 30 33 20 18 15 15 13 13 12 12 11 14 10 9 15 21 23 17 14 16 18 19 17 13 10 6 5 5 7 10 11 12 13 14 14 14 14 14 14
15 17 16 18 20 35 31 24 22 18 16 18 16 15 13 13 10 3 12 20 24 21 21 19 19 17 16 14 10 8 8 8 9 11 11 13 15 17 18 18 18 18 18
17 18 20 21 21 25 36 30 20 23 25 23 18 15 16 15 12 7 4 10 18 19 19 24 27 19 21 19 16 13 12 12 12 14 13 15 16 17 18 18 18 19 20
17 20 22 26 27 28 31 37 28 22 23 21 15 14 15 17 17 12 6 3 6 18 18 21 27 30 26 25 25 23 21 21 21 22 20 19 19 19 20 20 19 19 20
17 21 24 24 28 32 32 31 39 34 32 28 24 20 18 16 13 11 7 6 4 5 6 12 18 23 32 31 32 32 32 32 30 30 30 28 28 26 25 25 24 22 22
17 22 21 21 22 25 30 31 34 36 32 28 23 19 19 18 16 12 9 10 8 12 9 13 19 20 24 28 29 33 35 42 43 40 37 33 31 31 31 30 29 28 27
23 24 24 21 21 22 31 35 35 31 29 26 22 16 13 15 17 14 15 17 15 11 12 13 16 21 17 14 25 29 30 29 42 45 41 38 33 31 31 32 33 32 32
28 27 24 23 23 27 33 39 36 32 23 15 12 10 7 10 3 5 13 6 6 12 11 15 20 15 10 19 21 22 24 27 26 32 35 36 38 37 34 31 33 34 34
27 25 20 20 21 29 34 38 36 31 27 23 17 14 10 8 9 14 12 7 4 5 9 9 8 9 11 14 16 18 20 23 23 30 31 33 33 31 30 31 30 33 33
21 17 14 17 27 33 41 40 39 36 29 23 23 18 14 15 14 10 7 7 9 3 3 1 4 9 16 20 22 20 18 14 16 21 21 19 21 22 22 22 23 25 26
17 17 18 27 30 36 36 39 37 34 27 25 26 22 20 16 13 10 9 6 3 4 5 6 7 14 16 20 17 14 14 16 20 15 22 22 19 21 23 26 29 27 29
23 25 29 34 38 39 41 41 40 34 30 31 25 20 14 11 11 8 3 3 2 1 3 6 5 11 14 17 17 17 11 12 15 25 24 18 26 25 31 36 40 40 42
30 33 38 43 49 48 47 45 40 37 35 28 25 22 21 18 15 12 12 13 13 12 14 16 15 18 20 22 21 11 3 8 9 13 17 21 31 37 38 48 49 45 49
39 43 47 50 49 47 41 39 39 39 34 32 33 31 28 23 20 17 15 14 14 14 15 17 19 20 25 25 27 20 9 8 32 11 27 26 43 38 56 52 43 56 50
49 51 51 48 42 39 38 40 39 39 44 41 36 31 26 22 18 15 13 12 11 14 14 17 20 22 22 23 23 25 19 18 12 25 29 45 45 56 61 57 61 58 56
52 51 49 48 47 45 45 43 44 45 40 37 32 27 22 19 16 14 12 11 11 14 17 19 20 25 28 30 30 27 23 18 13 29 45 63 65 60 59 63 66 65 60
59 56 54 52 50 48 47 44 40 38 38 35 29 23 21 18 14 12 10 11 14 18 21 25 28 29 30 29 29 30 30 31 35 37 48 58 61 67 69 67 66 65 63
Wind_Direction_500mb
192 173 163 154 150 149 144 135 129 129 127 114 101 93 95 82 60 49 41 39 44 47 48 50 50 59 64 63 74 71 66 58 59 59 51 48 64 68 65 64 60 61 60
205 191 174 163 156 153 151 146 141 133 124 109 98 96 98 80 57 49 42 42 41 42 43 46 49 49 59 63 71 69 70 69 65 62 42 30 64 72 68 64 64 59 52
189 197 180 175 170 161 158 156 148 141 133 114 109 118 114 80 61 43 37 36 33 32 38 42 46 48 48 53 59 66 67 66 76 68 48 1 55 70 61 46 43 53 55
174 203 179 164 170 171 168 164 159 152 141 120 107 117 111 77 38 29 41 30 24 19 26 33 36 40 44 50 55 63 65 70 77 63 41 36 59 69 57 38 24 16 21
160 184 174 170 172 186 182 175 169 165 154 143 133 128 98 23 18 35 19 11 10 4 8 24 28 27 28 39 65 81 82 81 74 58 39 31 45 53 58 53 40 18 16
140 171 186 184 173 200 204 189 186 187 172 167 149 124 84 39 20 19 14 10 12 14 33 36 27 23 21 27 39 72 93 98 82 89 69 64 16 20 23 32 28 24 0
144 180 207 202 174 201 213 204 203 207 205 187 177 136 118 48 30 44 26 20 17 21 32 27 22 18 19 30 50 83 111 120 98 137 120 64 49 25 14 15 19 10 348
161 170 202 195 183 201 207 208 204 207 213 213 223 198 177 85 21 21 16 14 14 15 18 16 16 17 19 28 47 80 111 121 64 161 259 296 317 5 352 357 355 349 339
164 170 170 194 207 209 217 218 209 208 209 221 226 228 235 236 303 348 4 7 6 3 9 16 19 21 25 28 36 53 117 168 358 106 306 347 336 328 343 342 341 335 329
184 193 191 180 200 197 210 233 225 219 216 220 219 232 242 246 259 314 4 3 360 13 5 9 17 22 25 25 30 37 30 335 326 310 340 331 326 327 333 333 333 329 326
204 213 219 222 212 201 193 206 214 228 232 234 231 242 246 238 241 270 13 11 5 10 10 10 12 18 25 28 14 3 359 340 345 326 333 331 329 328 329 332 331 328 323
224 225 224 226 223 213 204 199 214 221 240 243 239 239 238 224 217 212 359 17 14 24 29 16 5 25 18 13 8 358 344 334 329 321 330 327 325 323 322 322 323 323 323
231 238 238 235 232 226 217 202 189 201 217 216 217 218 215 216 220 223 239 311 0 345 1 359 359 360 4 7 6 358 351 340 332 322 323 320 318 315 313 314 314 312 312
229 238 242 240 235 232 225 209 199 209 206 202 202 201 195 195 221 213 219 241 243 253 290 341 338 347 354 357 2 4 355 347 341 332 322 317 313 312 311 308 305 304 304
241 246 250 246 238 227 216 196 196 208 218 219 216 215 209 207 199 202 224 256 274 293 316 330 336 339 341 340 345 355 358 353 345 339 331 325 316 308 304 303 303 303 302
257 258 257 252 236 215 196 193 191 198 211 215 218 219 211 220 222 232 261 277 284 278 294 311 308 321 315 325 331 337 340 345 338 339 337 331 323 316 310 302 299 297 297
269 266 255 237 228 199 189 187 184 187 182 195 205 225 240 240 268 256 265 265 285 266 290 299 315 321 314 316 333 333 330 327 326 325 324 327 325 322 314 307 303 299 296
265 263 251 220 198 178 179 182 183 176 172 177 175 172 176 176 200 228 251 247 226 322 339 325 332 320 314 307 308 314 322 327 327 317 326 327 329 327 322 319 312 305 301
240 231 210 174 162 168 175 178 177 175 168 171 177 163 168 165 158 153 140 155 112 149 150 330 296 296 289 305 316 324 338 331 321 326 331 355 358 356 355 346 337 327 317
205 184 163 149 153 164 172 177 172 174 174 175 171 161 159 152 149 154 155 158 163 260 290 284 298 296 340 351 3 18 29 4 332 10 359 354 344 343 343 339 333 325 318
170 158 153 152 156 164 167 170 173 175 175 174 159 152 155 157 149 148 167 170 192 221 40 50 21 15 9 8 15 67 58 346 29 355 343 343 351 4 359 359 352 348 343
171 160 159 159 160 158 168 173 174 174 169 162 161 160 150 142 135 129 111 98 88 73 64 54 38 21 13 10 19 37 46 319 15 15 339 343 335 334 336 341 341 342 339
174 168 166 165 166 169 172 174 173 167 165 163 151 143 133 128 122 114 103 88 75 61 51 44 35 21 22 17 17 28 16 353 331 239 312 324 325 328 328 333 340 337 339
177 175 176 174 174 176 176 173 174 172 157 146 143 137 132 127 122 112 98 84 62 46 37 29 24 17 13 16 19 25 26 2 338 315 309 320 320 330 333 335 334 334 333
181 181 180 182 185 179 175 175 165 159 156 148 144 142 136 133 123 107 92 74 57 40 32 25 21 12 11 7 8 3 357 356 325 313 318 323 323 331 332 333 337 339 334
183 184 183 182 178 174 168 165 166 165 160 156 153 154 147 139 128 111 83 56 40 29 20 13 9 3 1 1 0 357 354 351 340 335 323 326 325 326 327 329 334 334 332
Wind_Speed_850mb
18 21 24 23 23 22 22 21 21 21 19 18 16 15 16 16 18 22 24 25 25 24 24 24 24 22 18 20 18 18 19 21 22 23 22 18 20 23 27 30 24 19 20
21 19 24 22 22 20 20 21 20 19 16 14 14 14 14 13 16 18 19 21 22 22 21 21 21 19 19 18 16 16 19 23 27 32 23 19 10 14 17 19 24 28 20
19 19 26 22 20 20 20 20 18 17 14 11 12 13 12 9 11 14 16 17 19 19 18 18 17 16 16 16 15 16 17 21 29 28 19 21 10 10 10 10 11 15 19
23 14 23 16 15 18 18 18 17 16 11 7 8 10 9 8 9 12 13 15 18 17 15 13 14 14 12 12 12 13 15 20 26 27 22 20 19 15 11 9 9 8 7
27 10 18 19 15 14 16 15 16 14 8 9 7 8 7 6 7 10 14 19 22 21 13 11 12 12 11 9 8 11 15 23 26 23 11 17 15 17 15 13 9 8 7
25 21 19 23 19 16 13 14 14 12 9 6 6 6 5 9 17 11 15 21 25 27 17 11 13 14 12 9 7 8 17 27 17 15 14 10 10 14 13 13 10 8 6
27 16 19 19 23 21 17 13 12 10 9 6 5 4 7 6 13 15 17 22 24 25 18 15 15 15 13 12 9 9 15 17 15 11 5 4 9 15 11 10 9 7 5
23 22 12 26 26 24 18 14 13 11 9 7 5 3 4 1 8 14 18 21 23 22 21 18 18 17 15 13 10 10 13 12 10 3 4 6 5 11 10 11 10 8 4
12 18 15 18 26 23 19 17 15 12 10 8 7 6 9 7 3 10 16 19 24 23 20 20 19 18 16 14 12 9 6 7 1 3 3 9 10 13 14 13 13 12 10
16 22 27 22 30 33 20 18 15 15 13 13 12 12 11 14 10 9 15 21 23 17 14 16 18 19 17 13 10 6 5 5 7 10 11 12 13 14 14 14 14 14 14
15 17 16 18 20 35 31 24 22 18 16 18 16 15 13 13 10 3 12 20 24 21 21 19 19 17 16 14 10 8 8 8 9 11 11 13 15 17 18 18 18 18 18
17 18 20 21 21 25 36 30 20 23 25 23 18 15 16 15 12 7 4 10 18 19 19 24 27 19 21 19 16 13 12 12 12 14 13 15 16 17 18 18 18 19 20
17 20 22 26 27 28 31 37 28 22 23 21 15 14 15 17 17 12 6 3 6 18 18 21 27 30 26 25 25 23 21 21 21 22 20 19 19 19 20 20 19 19 20
17 21 24 24 28 32 32 31 39 34 32 28 24 20 18 16 13 11 7 6 4 5 6 12 18 23 32 31 32 32 32 32 30 30 30 28 28 26 25 25 24 22 22
17 22 21 21 22 25 30 31 34 36 32 28 23 19 19 18 16 12 9 10 8 12 9 13 19 20 24 28 29 33 35 42 43 40 37 33 31 31 31 30 29 28 27
23 24 24 21 21 22 31 35 35 31 29 26 22 16 13 15 17 14 15 17 15 11 12 13 16 21 17 14 25 29 30 29 42 45 41 38 33 31 31 32 33 32 32
28 27 24 23 23 27 33 39 36 32 23 15 12 10 7 10 3 5 13 6 6 12 11 15 20 15 10 19 21 22 24 27 26 32 35 36 38 37 34 31 33 34 34
27 25 20 20 21 29 34 38 36 31 27 23 17 14 10 8 9 14 12 7 4 5 9 9 8 9 11 14 16 18 20 23 23 30 31 33 33 31 30 31 30 33 33
21 17 14 17 27 33 41 40 39 36 29 23 23 18 14 15 14 10 7 7 9 3 3 1 4 9 16 20 22 20 18 14 16 21 21 19 21 22 22 22 23 25 26
17 17 18 27 30 36 36 39 37 34 27 25 26 22 20 16 13 10 9 6 3 4 5 6 7 14 16 20 17 14 14 16 20 15 22 22 19 21 23 26 29 27 29
23 25 29 34 38 39 41 41 40 34 30 31 25 20 14 11 11 8 3 3 2 1 3 6 5 11 14 17 17 17 11 12 15 25 24 18 26 25 31 36 40 40 42
30 33 38 43 49 48 47 45 40 37 35 28 25 22 21 18 15 12 12 13 13 12 14 16 15 18 20 22 21 11 3 8 9 13 17 21 31 37 38 48 49 45 49
39 43 47 50 49 47 41 39 39 39 34 32 33 31 28 23 20 17 15 14 14 14 15 17 19 20 25 25 27 20 9 8 32 11 27 26 43 38 56 52 43 56 50
49 51 51 48 42 39 38 40 39 39 44 41 36 31 26 22 18 15 13 12 11 14 14 17 20 22 22 23 23 25 19 18 12 25 29 45 45 56 61 57 61 58 56
52 51 49 48 47 45 45 43 44 45 40 37 32 27 22 19 16 14 12 11 11 14 17 19 20 25 28 30 30 27 23 18 13 29 45 63 65 60 59 63 66 65 60
59 56 54 52 50 48 47 44 40 38 38 35 29 23 21 18 14 12 10 11 14 18 21 25 28 29 30 29 29 30 30 31 35 37 48 58 61 67 69 67 66 65 63
Wind_Direction_850mb
192 173 163 154 150 149 144 135 129 129 127 114 101 93 95 82 60 49 41 39 44 47 48 50 50 59 64 63 74 71 66 58 59 59 51 48 64 68 65 64 60 61 60
205 191 174 163 156 153 151 146 141 133 124 109 98 96 98 80 57 49 42 42 41 42 43 46 49 49 59 63 71 69 70 69 65 62 42 30 64 72 68 64 64 59 52
189 197 180 175 170 161 158 156 148 141 133 114 109 118 114 80 61 43 37 36 33 32 38 42 46 48 48 53 59 66 67 66 76 68 48 1 55 70 61 46 43 53 55
174 203 179 164 170 171 168 164 159 152 141 120 107 117 111 77 38 29 41 30 24 19 26 33 36 40 44 50 55 63 65 70 77 63 41 36 59 69 57 38 24 16 21
160 184 174 170 172 186 182 175 169 165 154 143 133 128 98 23 18 35 19 11 10 4 8 24 28 27 28 39 65 81 82 81 74 58 39 31 45 53 58 53 40 18 16
140 171 186 184 173 200 204 189 186 187 172 167 149 124 84 39 20 19 14 10 12 14 33 36 27 23 21 27 39 72 93 98 82 89 69 64 16 20 23 32 28 24 0
144 180 207 202 174 201 213 204 203 207 205 187 177 136 118 48 30 44 26 20 17 21 32 27 22 18 19 30 50 83 111 120 98 137 120 64 49 25 14 15 19 10 348
161 170 202 195 183 201 207 208 204 207 213 213 223 198 177 85 21 21 16 14 14 15 18 16 16 17 19 28 47 80 111 121 64 161 259 296 317 5 352 357 355 349 339
164 170 170 194 207 209 217 218 209 208 209 221 226 228 235 236 303 348 4 7 6 3 9 16 19 21 25 28 36 53 117 168 358 106 306 347 336 328 343 342 341 335 329
184 193 191 180 200 197 210 233 225 219 216 220 219 232 242 246 259 314 4 3 360 13 5 9 17 22 25 25 30 37 30 335 326 310 340 331 326 327 333 333 333 329 326
204 213 219 222 212 201 193 206 214 228 232 234 231 242 246 238 241 270 13 11 5 10 10 10 12 18 25 28 14 3 359 340 345 326 333 331 329 328 329 332 331 328 323
224 225 224 226 223 213 204 199 214 221 240 243 239 239 238 224 217 212 359 17 14 24 29 16 5 25 18 13 8 358 344 334 329 321 330 327 325 323 322 322 323 323 323
231 238 238 235 232 226 217 202 189 201 217 216 217 218 215 216 220 223 239 311 0 345 1 359 359 360 4 7 6 358 351 340 332 322 323 320 318 315 313 314 314 312 312
229 238 242 240 235 232 225 209 199 209 206 202 202 201 195 195 221 213 219 241 243 253 290 341 338 347 354 357 2 4 355 347 341 332 322 317 313 312 311 308 305 304 304
241 246 250 246 238 227 216 196 196 208 218 219 216 215 209 207 199 202 224 256 274 293 316 330 336 339 341 340 345 355 358 353 345 339 331 325 316 308 304 303 303 303 302
257 258 257 252 236 215 196 193 191 198 211 215 218 219 211 220 222 232 261 277 284 278 294 311 308 321 315 325 331 337 340 345 338 339 337 331 323 316 310 302 299 297 297
269 266 255 237 228 199 189 187 184 187 182 195 205 225 240 240 268 256 265 265 285 266 290 299 315 321 314 316 333 333 330 327 326 325 324 327 325 322 314 307 303 299 296
265 263 251 220 198 178 179 182 183 176 172 177 175 172 176 176 200 228 251 247 226 322 339 325 332 320 314 307 308 314 322 327 327 317 326 327 329 327 322 319 312 305 301
240 231 210 174 162 168 175 178 177 175 168 171 177 163 168 165 158 153 140 155 112 149 150 330 296 296 289 305 316 324 338 331 321 326 331 355 358 356 355 346 337 327 317
205 184 163 149 153 164 172 177 172 174 174 175 171 161 159 152 149 154 155 158 163 260 290 284 298 296 340 351 3 18 29 4 332 10 359 354 344 343 343 339 333 325 318
170 158 153 152 156 164 167 170 173 175 175 174 159 152 155 157 149 148 167 170 192 221 40 50 21 15 9 8 15 67 58 346 29 355 343 343 351 4 359 359 352 348 343
171 160 159 159 160 158 168 173 174 174 169 162 161 160 150 142 135 129 111 98 88 73 64 54 38 21 13 10 19 37 46 319 15 15 339 343 335 334 336 341 341 342 339
174 168 166 165 166 169 172 174 173 167 165 163 151 143 133 128 122 114 103 88 75 61 51 44 35 21 22 17 17 28 16 353 331 239 312 324 325 328 328 333 340 337 339
177 175 176 174 174 176 176 173 174 172 157 146 143 137 132 127 122 112 98 84 62 46 37 29 24 17 13 16 19 25 26 2 338 315 309 320 320 330 333 335 334 334 333
181 181 180 182 185 179 175 175 165 159 156 148 144 142 136 133 123 107 92 74 57 40 32 25 21 12 11 7 8 3 357 356 325 313 318 323 323 331 332 333 337 339 334
183 184 183 182 178 174 168 165 166 165 160 156 153 154 147 139 128 111 83 56 40 29 20 13 9 3 1 1 0 357 354 351 340 335 323 326 325 326 327 329 334 334 332